Radiation Dose at Monitoring Post of Fukushima Daini Nuclear Power Station
Date,Time,MP-1(microSv/h),MP-2(microSv/h),MP-3(microSv/h),MP-4(microSv/h),MP-5(microSv/h),MP-6(microSv/h),MP-7(microSv/h),Wind Direction,Wind Velocity(m/s),Rain
2020/11/11,00:00,0.181,0.159,0.262,0.247,0.245,0.142,0.085,southwest,0.7,No
2020/11/11,00:10,0.181,0.160,0.261,0.247,0.246,0.141,0.085,west,0.7,No
2020/11/11,00:20,0.180,0.159,0.260,0.245,0.247,0.141,0.085,west-northwest,0.9,No
2020/11/11,00:30,0.181,0.160,0.262,0.246,0.245,0.141,0.085,north-northwest,1.0,No
2020/11/11,00:40,0.180,0.160,0.261,0.246,0.245,0.141,0.086,west,1.2,No
2020/11/11,00:50,0.180,0.159,0.262,0.246,0.246,0.141,0.085,west,3.7,No
2020/11/11,01:00,0.181,0.159,0.261,0.247,0.245,0.142,0.085,west,3.0,No
2020/11/11,01:10,0.181,0.160,0.261,0.247,0.246,0.141,0.085,west,3.8,No
2020/11/11,01:20,0.180,0.160,0.260,0.246,0.247,0.142,0.084,west,4.3,No
2020/11/11,01:30,0.180,0.158,0.262,0.245,0.245,0.141,0.084,west-southwest,2.9,No
2020/11/11,01:40,0.180,0.159,0.260,0.247,0.245,0.141,0.085,south-southwest,1.6,No
2020/11/11,01:50,0.180,0.160,0.260,0.246,0.246,0.142,0.086,south,1.7,No
2020/11/11,02:00,0.181,0.159,0.260,0.246,0.245,0.141,0.085,-,CALM,No
2020/11/11,02:10,0.181,0.159,0.261,0.246,0.244,0.141,0.085,southeast,0.9,No
2020/11/11,02:20,0.179,0.159,0.261,0.246,0.246,0.140,0.084,southeast,1.0,No
2020/11/11,02:30,0.181,0.159,0.261,0.246,0.246,0.141,0.085,north-northwest,1.5,No
2020/11/11,02:40,0.180,0.158,0.261,0.247,0.246,0.141,0.085,northwest,2.8,No
2020/11/11,02:50,0.180,0.160,0.262,0.246,0.245,0.141,0.085,northwest,3.9,No
2020/11/11,03:00,0.181,0.159,0.260,0.247,0.245,0.141,0.085,northwest,3.1,No
2020/11/11,03:10,0.181,0.160,0.260,0.247,0.247,0.141,0.085,northwest,3.5,No
2020/11/11,03:20,0.181,0.159,0.261,0.247,0.245,0.140,0.085,north-northwest,3.4,No
2020/11/11,03:30,0.180,0.159,0.262,0.246,0.246,0.141,0.084,north-northwest,3.8,No
2020/11/11,03:40,0.181,0.159,0.259,0.246,0.246,0.141,0.085,north-northwest,4.4,No
2020/11/11,03:50,0.181,0.159,0.260,0.246,0.246,0.141,0.085,north-northwest,3.5,No
2020/11/11,04:00,0.181,0.159,0.259,0.248,0.246,0.141,0.086,north-northwest,3.5,No
2020/11/11,04:10,0.180,0.159,0.261,0.247,0.245,0.141,0.085,northwest,2.4,No
2020/11/11,04:20,0.181,0.158,0.260,0.247,0.245,0.141,0.085,north,1.1,No
2020/11/11,04:30,0.181,0.159,0.262,0.246,0.247,0.141,0.085,north-northwest,0.6,No
2020/11/11,04:40,0.181,0.159,0.262,0.246,0.245,0.140,0.085,north-northeast,1.0,No
2020/11/11,04:50,0.181,0.160,0.259,0.246,0.246,0.141,0.085,north,0.7,No
2020/11/11,05:00,0.181,0.159,0.260,0.247,0.246,0.140,0.085,-,CALM,No
2020/11/11,05:10,0.181,0.159,0.262,0.245,0.246,0.141,0.086,southwest,1.8,No
2020/11/11,05:20,0.180,0.159,0.260,0.246,0.244,0.140,0.085,west-southwest,2.1,No
2020/11/11,05:30,0.180,0.160,0.261,0.246,0.245,0.141,0.085,west,0.9,No
2020/11/11,05:40,0.181,0.159,0.260,0.247,0.246,0.141,0.085,north-northeast,0.7,No
2020/11/11,05:50,0.181,0.158,0.260,0.247,0.246,0.141,0.085,west-northwest,0.7,No
2020/11/11,06:00,0.181,0.159,0.261,0.247,0.245,0.141,0.085,west-northwest,2.1,No
2020/11/11,06:10,0.180,0.159,0.261,0.246,0.245,0.141,0.085,west-northwest,3.0,No
2020/11/11,06:20,0.182,0.160,0.261,0.246,0.246,0.141,0.085,west-northwest,3.6,No
2020/11/11,06:30,0.180,0.158,0.261,0.246,0.246,0.141,0.085,west-northwest,3.0,No
2020/11/11,06:40,0.181,0.160,0.260,0.247,0.246,0.141,0.085,west-northwest,2.0,No
2020/11/11,06:50,0.181,0.160,0.260,0.247,0.245,0.140,0.086,northwest,2.2,No
2020/11/11,07:00,0.181,0.159,0.261,0.246,0.246,0.140,0.086,north-northwest,2.0,No
2020/11/11,07:10,0.180,0.159,0.261,0.246,0.246,0.142,0.084,north-northwest,3.4,No
2020/11/11,07:20,0.180,0.160,0.261,0.247,0.246,0.140,0.085,northwest,4.2,No
2020/11/11,07:30,0.180,0.159,0.260,0.246,0.246,0.140,0.085,northwest,4.4,No
2020/11/11,07:40,0.180,0.159,0.261,0.245,0.246,0.141,0.085,northwest,3.5,No
2020/11/11,07:50,0.181,0.158,0.261,0.246,0.245,0.141,0.085,northwest,3.9,No
2020/11/11,08:00,0.181,0.160,0.260,0.245,0.245,0.141,0.085,west-northwest,4.2,No
2020/11/11,08:10,0.181,0.159,0.259,0.245,0.247,0.141,0.084,west-northwest,4.2,No
2020/11/11,08:20,0.179,0.159,0.260,0.246,0.245,0.142,0.084,west-northwest,3.6,No
2020/11/11,08:30,0.180,0.159,0.259,0.245,0.246,0.141,0.085,west-northwest,3.2,No
2020/11/11,08:40,0.180,0.158,0.259,0.245,0.246,0.141,0.085,west-northwest,2.2,No
2020/11/11,08:50,0.181,0.158,0.261,0.246,0.246,0.140,0.085,north-northwest,4.1,No
2020/11/11,09:00,0.180,0.158,0.259,0.245,0.247,0.140,0.085,north-northwest,3.9,No
2020/11/11,09:10,0.181,0.157,0.259,0.246,0.246,0.140,0.084,north-northwest,2.8,No
2020/11/11,09:20,0.180,0.158,0.261,0.244,0.245,0.140,0.084,north,2.8,No
2020/11/11,09:30,0.181,0.158,0.260,0.246,0.247,0.140,0.085,north-northeast,0.9,No
2020/11/11,09:40,0.180,0.158,0.259,0.245,0.244,0.140,0.085,-,CALM,No
2020/11/11,09:50,0.181,0.159,0.261,0.245,0.245,0.140,0.084,north,3.4,No
2020/11/11,10:00,0.181,0.158,0.259,0.246,0.244,0.141,0.085,north,4.4,No
2020/11/11,10:10,0.179,0.159,0.260,0.246,0.246,0.140,0.084,north-northwest,5.5,No
2020/11/11,10:20,0.181,0.158,0.260,0.247,0.245,0.141,0.085,north-northwest,6.9,No
2020/11/11,10:30,0.180,0.159,0.259,0.246,0.245,0.140,0.085,north-northwest,6.5,No
2020/11/11,10:40,0.179,0.160,0.261,0.246,0.247,0.140,0.085,north-northwest,7.1,No
2020/11/11,10:50,0.180,0.159,0.259,0.247,0.244,0.141,0.084,northwest,4.5,No
2020/11/11,11:00,0.180,0.159,0.259,0.245,0.247,0.141,0.085,northwest,6.5,No
2020/11/11,11:10,0.181,0.158,0.260,0.248,0.244,0.141,0.085,northwest,5.7,No
2020/11/11,11:20,0.181,0.159,0.261,0.245,0.246,0.140,0.084,northwest,6.4,No
2020/11/11,11:30,0.179,0.159,0.260,0.246,0.245,0.141,0.085,west-northwest,8.6,No
2020/11/11,11:40,0.181,0.158,0.261,0.247,0.246,0.141,0.085,northwest,8.4,No
2020/11/11,11:50,0.179,0.158,0.260,0.246,0.243,0.140,0.085,northwest,5.6,No
2020/11/11,12:00,0.181,0.159,0.261,0.247,0.246,0.140,0.084,north-northwest,8.1,No
2020/11/11,12:10,0.179,0.159,0.261,0.245,0.245,0.141,0.084,northwest,7.0,No
2020/11/11,12:20,0.181,0.160,0.260,0.247,0.245,0.142,0.086,north-northwest,5.2,No
2020/11/11,12:30,0.180,0.160,0.260,0.246,0.246,0.140,0.085,northwest,7.8,No
2020/11/11,12:40,0.181,0.160,0.259,0.247,0.245,0.142,0.085,northwest,8.1,No
2020/11/11,12:50,0.180,0.159,0.260,0.246,0.245,0.140,0.084,northwest,8.1,No
2020/11/11,13:00,0.181,0.159,0.262,0.246,0.245,0.141,0.085,northwest,6.1,No
2020/11/11,13:10,0.181,0.160,0.262,0.246,0.247,0.141,0.085,northwest,7.3,No
2020/11/11,13:20,0.180,0.159,0.262,0.246,0.246,0.140,0.084,northwest,7.3,No
2020/11/11,13:30,0.180,0.159,0.261,0.249,0.247,0.141,0.084,west-northwest,7.0,No
2020/11/11,13:40,0.180,0.158,0.262,0.246,0.246,0.140,0.085,west-northwest,6.4,No
2020/11/11,13:50,0.180,0.159,0.261,0.247,0.246,0.142,0.084,north,1.7,No
2020/11/11,14:00,0.181,0.158,0.260,0.247,0.246,0.141,0.085,north-northeast,2.5,No
2020/11/11,14:10,0.181,0.158,0.261,0.246,0.246,0.140,0.084,northeast,4.0,No
2020/11/11,14:20,0.181,0.158,0.260,0.246,0.247,0.141,0.084,north-northeast,4.5,No
2020/11/11,14:30,0.180,0.158,0.260,0.247,0.246,0.140,0.085,north-northeast,3.6,No
2020/11/11,14:40,0.181,0.159,0.261,0.247,0.247,0.140,0.085,north-northeast,2.8,No
2020/11/11,14:50,0.180,0.159,0.261,0.247,0.246,0.141,0.084,north,2.5,No
2020/11/11,15:00,0.181,0.159,0.260,0.246,0.247,0.141,0.085,north,2.1,No
2020/11/11,15:10,0.181,0.159,0.261,0.247,0.247,0.141,0.084,north-northwest,0.8,No
2020/11/11,15:20,0.180,0.159,0.261,0.246,0.245,0.141,0.085,-,CALM,No
2020/11/11,15:30,0.181,0.159,0.262,0.248,0.248,0.141,0.085,-,CALM,No
2020/11/11,15:40,0.182,0.160,0.260,0.247,0.246,0.141,0.084,-,CALM,No
2020/11/11,15:50,0.180,0.159,0.257,0.246,0.247,0.141,0.085,-,CALM,No
2020/11/11,16:00,0.181,0.159,0.259,0.246,0.245,0.141,0.085,-,CALM,No
2020/11/11,16:10,0.181,0.160,0.262,0.246,0.245,0.141,0.085,northwest,0.9,No
2020/11/11,16:20,0.180,0.159,0.261,0.248,0.247,0.141,0.084,west-northwest,1.1,No
2020/11/11,16:30,0.180,0.160,0.261,0.247,0.246,0.140,0.084,northwest,0.8,No
2020/11/11,16:40,0.181,0.160,0.261,0.247,0.246,0.141,0.086,northwest,2.2,No
2020/11/11,16:50,0.180,0.160,0.261,0.247,0.246,0.141,0.085,west-northwest,2.9,No
2020/11/11,17:00,0.181,0.160,0.260,0.248,0.245,0.140,0.085,northwest,4.1,No
2020/11/11,17:10,0.181,0.158,0.260,0.246,0.245,0.142,0.085,north-northwest,4.8,No
2020/11/11,17:20,0.181,0.159,0.263,0.247,0.245,0.142,0.085,northwest,3.7,No
2020/11/11,17:30,0.181,0.159,0.262,0.247,0.245,0.142,0.085,northwest,3.7,No
2020/11/11,17:40,0.182,0.159,0.261,0.246,0.245,0.142,0.084,northwest,3.8,No
2020/11/11,17:50,0.180,0.160,0.262,0.247,0.247,0.140,0.085,north-northwest,3.6,No
2020/11/11,18:00,0.181,0.160,0.262,0.248,0.246,0.142,0.086,northwest,3.2,No
2020/11/11,18:10,0.180,0.159,0.261,0.246,0.245,0.142,0.085,north-northwest,4.1,No
2020/11/11,18:20,0.181,0.160,0.262,0.248,0.246,0.141,0.085,north-northwest,3.9,No
2020/11/11,18:30,0.179,0.158,0.262,0.246,0.246,0.141,0.085,northwest,4.9,No
2020/11/11,18:40,0.182,0.159,0.261,0.247,0.246,0.142,0.085,northwest,4.5,No
2020/11/11,18:50,0.181,0.158,0.261,0.247,0.245,0.141,0.086,northwest,4.2,No
2020/11/11,19:00,0.180,0.159,0.260,0.246,0.245,0.142,0.085,northwest,5.0,No
2020/11/11,19:10,0.180,0.160,0.261,0.247,0.246,0.141,0.084,northwest,5.5,No
2020/11/11,19:20,0.181,0.159,0.262,0.247,0.246,0.141,0.085,north-northwest,5.5,No
2020/11/11,19:30,0.182,0.159,0.263,0.247,0.245,0.140,0.085,north-northwest,5.3,No
2020/11/11,19:40,0.181,0.159,0.261,0.247,0.246,0.141,0.085,northwest,4.5,No
2020/11/11,19:50,0.180,0.160,0.261,0.247,0.246,0.141,0.085,northwest,3.9,No
2020/11/11,20:00,0.181,0.159,0.262,0.248,0.245,0.141,0.085,northwest,4.8,No
2020/11/11,20:10,0.181,0.160,0.263,0.247,0.245,0.141,0.085,north-northwest,5.6,No
2020/11/11,20:20,0.181,0.159,0.262,0.248,0.245,0.141,0.085,north-northwest,5.8,No
2020/11/11,20:30,0.181,0.160,0.261,0.247,0.247,0.140,0.086,northwest,5.7,No
2020/11/11,20:40,0.181,0.158,0.261,0.246,0.245,0.141,0.085,northwest,5.3,No
2020/11/11,20:50,0.181,0.158,0.262,0.247,0.247,0.140,0.085,northwest,5.5,No
2020/11/11,21:00,0.181,0.159,0.262,0.248,0.246,0.141,0.084,north-northwest,4.5,No
2020/11/11,21:10,0.180,0.160,0.261,0.247,0.245,0.141,0.086,north-northwest,4.2,No
2020/11/11,21:20,0.181,0.158,0.262,0.247,0.246,0.141,0.085,north-northwest,4.7,No
2020/11/11,21:30,0.182,0.159,0.262,0.246,0.245,0.142,0.085,north-northwest,4.2,No
2020/11/11,21:40,0.182,0.159,0.260,0.247,0.247,0.141,0.084,north-northwest,3.8,No
2020/11/11,21:50,0.179,0.159,0.262,0.247,0.246,0.141,0.085,north-northwest,4.4,No
2020/11/11,22:00,0.181,0.159,0.262,0.247,0.246,0.141,0.085,north-northwest,4.0,No
2020/11/11,22:10,0.181,0.160,0.262,0.247,0.247,0.140,0.085,north-northwest,4.7,No
2020/11/11,22:20,0.180,0.160,0.262,0.246,0.246,0.141,0.085,north-northwest,5.5,No
2020/11/11,22:30,0.180,0.159,0.262,0.248,0.245,0.141,0.085,northwest,4.9,No
2020/11/11,22:40,0.181,0.159,0.261,0.246,0.246,0.141,0.084,northwest,4.6,No
2020/11/11,22:50,0.180,0.159,0.261,0.247,0.246,0.141,0.085,northwest,5.0,No
2020/11/11,23:00,0.181,0.159,0.262,0.247,0.245,0.141,0.086,northwest,5.4,No
2020/11/11,23:10,0.180,0.160,0.260,0.247,0.246,0.142,0.085,northwest,6.0,No
2020/11/11,23:20,0.180,0.159,0.262,0.245,0.245,0.141,0.085,northwest,5.9,No
2020/11/11,23:30,0.180,0.160,0.261,0.247,0.246,0.141,0.085,north-northwest,5.9,No
2020/11/11,23:40,0.180,0.160,0.261,0.248,0.246,0.141,0.084,northwest,6.2,No
2020/11/11,23:50,0.181,0.159,0.260,0.246,0.246,0.142,0.085,northwest,6.0,No
